| time (UTC) | temp F | wind direction | speed knots | gust knots | rain 1hr in | rain 24hr in | rain mn in | humidity % | barometer mb |
| 20260505162030 | 49 | 290 | 4.3 | 6.1 | 0.30 | 0.37 | 0.30 | 87 | 1006.1 |
| 20260505161028 | 50 | 319 | 0.9 | 3.5 | 0.28 | 0.35 | 0.28 | 88 | 1006.1 |
| 20260505153017 | 63 | 29 | 3.5 | 9.6 | 0.00 | 0.07 | 0.00 | 64 | 1005.0 |
| 20260505152014 | 64 | 30 | 2.6 | 9.6 | 0.00 | 0.07 | 0.00 | 66 | 1005.2 |
| 20260505151112 | 64 | 103 | 2.6 | 7.8 | 0.00 | 0.07 | 0.00 | 66 | 1005.1 |
| 20260505150109 | 65 | 125 | 2.6 | 7.0 | 0.00 | 0.07 | 0.00 | 66 | 1005.0 |
| 20260505125036 | 67 | 354 | 1.7 | 7.0 | 0.00 | 0.08 | 0.00 | 60 | 1006.1 |
| 20260505124033 | 67 | 22 | 2.6 | 9.6 | 0.00 | 0.08 | 0.00 | 62 | 1006.0 |
| 20260505123030 | 67 | 114 | 2.6 | 5.2 | 0.00 | 0.08 | 0.00 | 61 | 1006.3 |
| 20260505122027 | 65 | 27 | 3.5 | 7.8 | 0.00 | 0.08 | 0.00 | 65 | 1006.3 |
| 20260505121024 | 67 | 68 | 0.9 | 5.2 | 0.00 | 0.08 | 0.00 | 62 | 1006.4 |
| 20260505120022 | 66 | 107 | 1.7 | 3.5 | 0.00 | 0.08 | 0.00 | 64 | 1006.3 |
| 20260505115019 | 66 | 136 | 1.7 | 3.5 | 0.00 | 0.08 | 0.00 | 66 | 1006.5 |
| 20260505114016 | 67 | 76 | 1.7 | 7.0 | 0.00 | 0.08 | 0.00 | 60 | 1006.6 |
| 20260505113114 | 64 | 25 | 2.6 | 6.1 | 0.00 | 0.08 | 0.00 | 64 | 1006.7 |
| 20260505112112 | 63 | 17 | 0.9 | 3.5 | 0.00 | 0.08 | 0.00 | 68 | 1006.8 |
| 20260505111109 | 64 | 9 | 1.7 | 5.2 | 0.00 | 0.08 | 0.00 | 69 | 1007.0 |
| 20260505110106 | 64 | 135 | 0.0 | 1.7 | 0.00 | 0.08 | 0.00 | 69 | 1007.1 |
| 20260505102056 | 61 | 81 | 2.6 | 7.8 | 0.00 | 0.08 | 0.00 | 76 | 1007.2 |
| 20260505101053 | 63 | 113 | 1.7 | 5.2 | 0.00 | 0.08 | 0.00 | 69 | 1007.1 |
| 20260505100051 | 64 | 100 | 1.7 | 5.2 | 0.00 | 0.08 | 0.00 | 68 | 1006.8 |
| 20260505095048 | 65 | 125 | 0.9 | 3.5 | 0.00 | 0.08 | 0.00 | 66 | 1006.7 |
| 20260505094045 | 62 | 257 | 0.0 | 1.7 | 0.00 | 0.08 | 0.00 | 74 | 1006.7 |
| 20260505093043 | 59 | 295 | 3.5 | 6.1 | 0.00 | 0.08 | 0.00 | 78 | 1006.7 |
| 20260505092039 | 58 | 304 | 4.3 | 7.8 | 0.00 | 0.08 | 0.00 | 80 | 1006.7 |
| 20260505091037 | 56 | 304 | 3.5 | 7.0 | 0.00 | 0.08 | 0.00 | 83 | 1006.7 |
| 20260505090034 | 56 | 197 | 0.9 | 3.5 | 0.00 | 0.08 | 0.00 | 83 | 1007.2 |
| 20260505085031 | 57 | 143 | 1.7 | 6.1 | 0.00 | 0.08 | 0.00 | 80 | 1007.2 |
| 20260505084029 | 58 | 136 | 2.6 | 7.8 | 0.00 | 0.08 | 0.00 | 77 | 1007.5 |
| 20260505083026 | 60 | 117 | 1.7 | 7.8 | 0.00 | 0.08 | 0.00 | 73 | 1007.1 |
| 20260505082024 | 61 | 114 | 0.9 | 5.2 | 0.00 | 0.08 | 0.00 | 72 | 1006.8 |
| 20260505081021 | 62 | 113 | 0.9 | 3.5 | 0.00 | 0.08 | 0.00 | 72 | 1006.8 |
| 20260505080018 | 60 | 0 | 0.9 | 3.5 | 0.00 | 0.08 | 0.00 | 74 | 1006.8 |
| 20260505075016 | 59 | 316 | 2.6 | 5.2 | 0.00 | 0.08 | 0.00 | 75 | 1006.8 |
| 20260505074113 | 60 | 355 | 2.6 | 5.2 | 0.00 | 0.08 | 0.00 | 71 | 1006.8 |
| 20260505073111 | 59 | 128 | 0.0 | 1.7 | 0.00 | 0.08 | 0.00 | 73 | 1006.9 |
| 20260505072108 | 58 | 139 | 3.5 | 6.1 | 0.00 | 0.08 | 0.00 | 74 | 1006.9 |
| 20260505071106 | 57 | 194 | 3.5 | 7.8 | 0.00 | 0.08 | 0.00 | 75 | 1006.9 |
| 20260505065100 | 57 | 113 | 0.0 | 3.5 | 0.00 | 0.08 | 0.00 | 78 | 1006.9 |
| 20260505064058 | 58 | 161 | 0.0 | 1.7 | 0.00 | 0.08 | 0.00 | 75 | 1006.9 |
| 20260505063055 | 59 | 328 | 0.0 | 1.7 | 0.00 | 0.08 | 0.00 | 75 | 1006.9 |
| 20260505062052 | 56 | 226 | 0.9 | 3.5 | 0.00 | 0.08 | 0.00 | 79 | 1006.7 |
| 20260505061049 | 55 | 238 | 0.9 | 1.7 | 0.00 | 0.08 | 0.00 | 80 | 1007.0 |
| 20260505060046 | 54 | 145 | 0.9 | 1.7 | 0.00 | 0.08 | 0.00 | 83 | 1007.0 |
| 20260505055044 | 53 | 153 | 1.7 | 3.5 | 0.00 | 0.08 | 0.00 | 83 | 1007.2 |
| 20260505054041 | 53 | 121 | 0.9 | 3.5 | 0.00 | 0.08 | 0.00 | 82 | 1007.2 |
| 20260505053039 | 54 | 52 | 0.9 | 1.7 | 0.00 | 0.08 | 0.00 | 81 | 1006.8 |
| 20260505052036 | 53 | 353 | 0.9 | 1.7 | 0.00 | 0.08 | 0.00 | 85 | 1006.8 |
| 20260505051034 | 52 | 225 | 0.0 | 1.7 | 0.00 | 0.08 | 0.00 | 86 | 1006.8 |
| 20260505041018 | 51 | 138 | 0.9 | 1.7 | 0.00 | 0.08 | 0.00 | 89 | 1007.1 |
| 20260505040015 | 51 | 153 | 0.9 | 1.7 | 0.00 | 0.08 | 0.00 | 88 | 1007.1 |
| 20260505035113 | 52 | 188 | 0.0 | 3.5 | 0.00 | 0.08 | 0.00 | 86 | 1007.0 |
| 20260505034110 | 53 | 135 | 0.0 | 1.7 | 0.00 | 0.08 | 0.00 | 84 | 1007.0 |
| 20260505033107 | 53 | 129 | 0.9 | 1.7 | 0.00 | 0.08 | 0.00 | 85 | 1007.0 |
| 20260505032105 | 53 | 120 | 0.9 | 1.7 | 0.00 | 0.08 | 0.00 | 86 | 1007.0 |
| 20260505031102 | 53 | 0.0 | 0.0 | 0.00 | 0.08 | 0.00 | 86 | 1007.0 | |
| 20260505030059 | 54 | 0.0 | 1.7 | 0.00 | 0.08 | 0.00 | 84 | 1007.0 | |
| 20260505025057 | 54 | 45 | 0.0 | 1.7 | 0.00 | 0.08 | 0.00 | 82 | 1006.8 |
| 20260505024054 | 55 | 234 | 0.9 | 1.7 | 0.00 | 0.08 | 0.00 | 81 | 1006.9 |
| 20260505023052 | 55 | 217 | 1.7 | 5.2 | 0.00 | 0.08 | 0.00 | 82 | 1007.1 |
| 20260505022054 | 54 | 199 | 1.7 | 3.5 | 0.00 | 0.08 | 0.00 | 82 | 1007.1 |
| 20260505021047 | 54 | 180 | 0.9 | 3.5 | 0.00 | 0.08 | 0.00 | 83 | 1007.1 |
| 20260505020044 | 54 | 195 | 0.9 | 3.5 | 0.00 | 0.08 | 0.00 | 83 | 1006.9 |
| 20260505015041 | 55 | 196 | 1.7 | 3.5 | 0.00 | 0.08 | 0.00 | 81 | 1006.8 |
| 20260505014039 | 55 | 230 | 2.6 | 6.1 | 0.00 | 0.08 | 0.00 | 80 | 1006.8 |
| 20260505013036 | 54 | 225 | 1.7 | 3.5 | 0.00 | 0.08 | 0.00 | 83 | 1007.1 |
| 20260505012039 | 54 | 274 | 2.6 | 5.2 | 0.00 | 0.08 | 0.00 | 83 | 1007.1 |
| 20260505011031 | 54 | 176 | 4.3 | 7.0 | 0.00 | 0.08 | 0.00 | 82 | 1007.1 |
| 20260505010028 | 54 | 195 | 4.3 | 7.8 | 0.00 | 0.08 | 0.00 | 83 | 1007.2 |
| 20260505005026 | 54 | 167 | 2.6 | 6.1 | 0.00 | 0.08 | 0.00 | 84 | 1007.2 |
| 20260505004023 | 54 | 177 | 3.5 | 6.1 | 0.00 | 0.08 | 0.00 | 82 | 1007.1 |
| 20260505003025 | 55 | 171 | 3.5 | 7.0 | 0.00 | 0.08 | 0.00 | 82 | 1007.2 |
| 20260505001114 | 55 | 169 | 4.3 | 7.8 | 0.00 | 0.08 | 0.00 | 81 | 1007.2 |
| 20260505000117 | 55 | 237 | 4.3 | 7.8 | 0.00 | 0.08 | 0.00 | 80 | 1007.1 |
| 20260504235109 | 55 | 232 | 4.3 | 7.0 | 0.00 | 0.08 | 0.08 | 81 | 1007.1 |
| 20260504234107 | 55 | 214 | 3.5 | 6.1 | 0.00 | 0.08 | 0.08 | 82 | 1007.3 |
| 20260504233104 | 55 | 229 | 4.3 | 7.8 | 0.00 | 0.08 | 0.08 | 82 | 1007.2 |
| 20260504232101 | 55 | 198 | 3.5 | 6.1 | 0.00 | 0.08 | 0.08 | 83 | 1007.3 |
| 20260504231059 | 54 | 188 | 4.3 | 7.8 | 0.00 | 0.08 | 0.08 | 88 | 1007.3 |
| 20260504230056 | 54 | 183 | 3.5 | 7.0 | 0.00 | 0.08 | 0.08 | 90 | 1007.2 |
| 20260504225054 | 54 | 198 | 3.5 | 7.8 | 0.00 | 0.08 | 0.08 | 91 | 1007.2 |
| 20260504224051 | 54 | 174 | 1.7 | 6.1 | 0.00 | 0.08 | 0.08 | 92 | 1007.1 |
| 20260504223048 | 54 | 178 | 1.7 | 3.5 | 0.00 | 0.08 | 0.08 | 92 | 1007.0 |
| 20260504222046 | 54 | 177 | 1.7 | 3.5 | 0.00 | 0.08 | 0.08 | 91 | 1007.1 |
| 20260504221043 | 55 | 197 | 2.6 | 5.2 | 0.00 | 0.08 | 0.08 | 90 | 1007.1 |
| 20260504220041 | 55 | 141 | 1.7 | 3.5 | 0.00 | 0.08 | 0.08 | 89 | 1007.1 |
| 20260504215038 | 56 | 146 | 0.9 | 1.7 | 0.00 | 0.08 | 0.08 | 88 | 1007.1 |
| 20260504214036 | 56 | 119 | 1.7 | 3.5 | 0.00 | 0.08 | 0.08 | 88 | 1007.1 |
| 20260504213033 | 56 | 119 | 0.9 | 3.5 | 0.00 | 0.08 | 0.08 | 88 | 1007.0 |
| 20260504212030 | 57 | 109 | 1.7 | 3.5 | 0.02 | 0.08 | 0.08 | 86 | 1007.1 |
| 20260504211027 | 56 | 314 | 2.6 | 3.5 | 0.06 | 0.08 | 0.08 | 85 | 1006.9 |
| 20260504210025 | 56 | 290 | 1.7 | 5.2 | 0.06 | 0.08 | 0.08 | 87 | 1007.2 |
| 20260504205022 | 56 | 274 | 3.5 | 7.0 | 0.06 | 0.08 | 0.08 | 88 | 1007.2 |
| 20260504204019 | 56 | 285 | 2.6 | 5.2 | 0.07 | 0.08 | 0.08 | 89 | 1007.2 |
| 20260504203017 | 56 | 222 | 1.7 | 5.2 | 0.07 | 0.08 | 0.08 | 90 | 1007.2 |
| 20260504202114 | 56 | 242 | 2.6 | 6.1 | 0.05 | 0.06 | 0.06 | 88 | 1007.5 |
| 20260504201112 | 56 | 196 | 5.2 | 11.3 | 0.01 | 0.02 | 0.02 | 87 | 1007.7 |
| 20260504200109 | 57 | 192 | 5.2 | 13.0 | 0.01 | 0.02 | 0.02 | 84 | 1007.7 |
| 20260504195107 | 57 | 151 | 6.1 | 13.0 | 0.01 | 0.02 | 0.02 | 86 | 1007.4 |
| 20260504194104 | 59 | 198 | 3.5 | 7.8 | 0.00 | 0.01 | 0.01 | 89 | 1007.1 |
| 20260504193102 | 60 | 147 | 2.6 | 5.2 | 0.00 | 0.01 | 0.01 | 88 | 1006.8 |
| 20260504192059 | 60 | 144 | 3.5 | 7.8 | 0.00 | 0.01 | 0.01 | 87 | 1006.8 |
| 20260504191057 | 60 | 104 | 0.9 | 3.5 | 0.00 | 0.01 | 0.01 | 87 | 1006.7 |
| 20260504190054 | 61 | 79 | 1.7 | 3.5 | 0.00 | 0.01 | 0.01 | 86 | 1006.6 |
| 20260504185051 | 61 | 117 | 0.9 | 3.5 | 0.00 | 0.01 | 0.01 | 85 | 1006.6 |
| 20260504184049 | 61 | 82 | 1.7 | 5.2 | 0.00 | 0.01 | 0.01 | 85 | 1006.5 |
| 20260504183046 | 62 | 100 | 1.7 | 3.5 | 0.00 | 0.01 | 0.01 | 84 | 1006.4 |
| 20260504182043 | 62 | 125 | 0.9 | 3.5 | 0.00 | 0.01 | 0.01 | 83 | 1006.1 |
| 20260504181040 | 62 | 123 | 0.9 | 3.5 | 0.00 | 0.01 | 0.01 | 82 | 1005.9 |
| 20260504180037 | 62 | 164 | 0.9 | 3.5 | 0.00 | 0.01 | 0.01 | 82 | 1005.9 |
| 20260504175035 | 62 | 78 | 0.9 | 5.2 | 0.00 | 0.01 | 0.01 | 82 | 1005.9 |
| 20260504174032 | 62 | 39 | 2.6 | 5.2 | 0.00 | 0.01 | 0.01 | 82 | 1006.1 |
| 20260504173029 | 62 | 347 | 2.6 | 6.1 | 0.00 | 0.01 | 0.01 | 82 | 1006.1 |
| 20260504172027 | 62 | 311 | 2.6 | 5.2 | 0.00 | 0.01 | 0.01 | 82 | 1006.1 |
| 20260504171024 | 62 | 22 | 2.6 | 7.0 | 0.00 | 0.01 | 0.01 | 81 | 1006.2 |